Time,TemperatureF,DewpointF,PressureIn,WindDirection,WindDirectionDegrees,WindSpeedMPH,WindSpeedGustMPH,Humidity,HourlyPrecipIn,Conditions,Clouds,dailyrainin,SoftwareType,DateUTC
2013-04-11 00:00:00,42.5,41.4,29.74,South,187,1.0,1.0,96,0.00,,,2.23,Wunderground v.1.15,2013-04-11 05:00:00,
2013-04-11 00:10:00,42.4,41.3,29.75,ESE,114,1.0,6.0,96,0.00,,,0.00,Wunderground v.1.15,2013-04-11 05:10:00,
2013-04-11 00:19:00,42.4,41.3,29.75,SW,219,1.0,6.0,96,0.00,,,0.00,Wunderground v.1.15,2013-04-11 05:19:00,
2013-04-11 00:29:00,42.3,41.2,29.75,SSE,160,2.0,2.0,96,0.00,,,0.00,Wunderground v.1.15,2013-04-11 05:29:00,
2013-04-11 00:35:00,42.4,41.3,29.76,ESE,108,2.0,6.0,96,0.00,,,0.00,Wunderground v.1.15,2013-04-11 05:35:00,
2013-04-11 00:45:00,42.2,41.1,29.75,SE,132,2.0,6.0,96,0.00,,,0.00,Wunderground v.1.15,2013-04-11 05:45:00,
2013-04-11 00:50:00,42.1,41.0,29.75,ENE,68,2.0,6.0,96,0.00,,,0.00,Wunderground v.1.15,2013-04-11 05:50:00,
2013-04-11 00:59:00,42.0,40.9,29.75,SW,235,2.0,2.0,96,0.00,,,0.00,Wunderground v.1.15,2013-04-11 05:59:00,
2013-04-11 01:09:00,42.0,40.9,29.76,East,79,2.0,2.0,96,0.00,,,0.00,Wunderground v.1.15,2013-04-11 06:09:00,
2013-04-11 01:15:00,41.8,40.7,29.75,SSE,166,2.0,3.0,96,0.00,,,0.00,Wunderground v.1.15,2013-04-11 06:15:00,
2013-04-11 01:25:00,41.7,40.6,29.76,SSE,160,2.0,6.0,96,0.00,,,0.00,Wunderground v.1.15,2013-04-11 06:25:00,
2013-04-11 01:34:00,41.3,40.2,29.75,East,81,3.0,6.0,96,0.00,,,0.00,Wunderground v.1.15,2013-04-11 06:34:00,
2013-04-11 01:44:00,41.1,40.0,29.75,SSE,148,1.0,6.0,96,0.00,,,0.00,Wunderground v.1.15,2013-04-11 06:44:00,
2013-04-11 01:55:00,41.0,39.9,29.75,SSE,150,2.0,6.0,96,0.00,,,0.00,Wunderground v.1.15,2013-04-11 06:55:00,
2013-04-11 02:04:00,40.8,39.7,29.75,WSW,253,2.0,4.0,96,0.00,,,0.00,Wunderground v.1.15,2013-04-11 07:04:00,
2013-04-11 02:14:00,40.5,39.4,29.75,SSW,200,2.0,6.0,96,0.00,,,0.00,Wunderground v.1.15,2013-04-11 07:14:00,
2013-04-11 02:24:00,40.3,39.3,29.75,East,101,2.0,6.0,96,0.00,,,0.00,Wunderground v.1.15,2013-04-11 07:24:00,
2013-04-11 02:30:00,40.3,39.3,29.74,SE,140,2.0,2.0,96,0.00,,,0.00,Wunderground v.1.15,2013-04-11 07:30:00,
2013-04-11 02:40:00,40.3,39.3,29.75,SE,143,3.0,6.0,96,0.00,,,0.00,Wunderground v.1.15,2013-04-11 07:40:00,
2013-04-11 02:49:00,40.0,39.0,29.74,ESE,109,3.0,6.0,96,0.00,,,0.00,Wunderground v.1.15,2013-04-11 07:49:00,
2013-04-11 02:59:00,39.8,38.8,29.74,SW,231,2.0,6.0,96,0.00,,,0.00,Wunderground v.1.15,2013-04-11 07:59:00,
2013-04-11 03:05:00,39.7,38.7,29.75,SE,125,2.0,6.0,96,0.00,,,0.00,Wunderground v.1.15,2013-04-11 08:05:00,
2013-04-11 03:15:00,39.6,38.6,29.74,ESE,110,2.0,6.0,96,0.00,,,0.00,Wunderground v.1.15,2013-04-11 08:15:00,
2013-04-11 03:24:00,39.3,38.3,29.74,SW,217,2.0,6.0,96,0.00,,,0.00,Wunderground v.1.15,2013-04-11 08:24:00,
2013-04-11 03:34:00,39.1,38.1,29.75,SSW,207,2.0,2.0,96,0.00,,,0.00,Wunderground v.1.15,2013-04-11 08:34:00,
2013-04-11 03:45:00,38.8,37.8,29.75,SSW,195,2.0,6.0,96,0.00,,,0.00,Wunderground v.1.15,2013-04-11 08:45:00,
2013-04-11 03:55:00,38.6,37.6,29.74,SSE,165,2.0,6.0,96,0.00,,,0.00,Wunderground v.1.15,2013-04-11 08:55:00,
2013-04-11 04:04:00,38.4,37.4,29.74,SSE,148,1.0,6.0,96,0.00,,,0.00,Wunderground v.1.15,2013-04-11 09:04:00,
2013-04-11 04:14:00,38.1,37.1,29.74,SSE,148,3.0,6.0,96,0.00,,,0.00,Wunderground v.1.15,2013-04-11 09:14:00,
2013-04-11 04:25:00,38.0,37.0,29.74,South,170,2.0,6.0,96,0.00,,,0.00,Wunderground v.1.15,2013-04-11 09:25:00,
2013-04-11 04:34:00,37.9,36.9,29.73,SSE,148,1.0,6.0,96,0.00,,,0.00,Wunderground v.1.15,2013-04-11 09:34:00,
2013-04-11 04:44:00,37.7,36.7,29.74,SSW,193,2.0,6.0,96,0.00,,,0.00,Wunderground v.1.15,2013-04-11 09:44:00,
2013-04-11 04:54:00,37.8,36.8,29.73,SE,138,1.0,6.0,96,0.00,,,0.00,Wunderground v.1.15,2013-04-11 09:54:00,
2013-04-11 05:05:00,37.8,36.8,29.74,SW,231,1.0,6.0,96,0.00,,,0.00,Wunderground v.1.15,2013-04-11 10:05:00,
2013-04-11 05:14:00,37.7,36.7,29.74,SE,131,1.0,6.0,96,0.00,,,0.00,Wunderground v.1.15,2013-04-11 10:14:00,
2013-04-11 05:24:00,37.5,36.5,29.76,East,97,2.0,6.0,96,0.00,,,0.00,Wunderground v.1.15,2013-04-11 10:24:00,
2013-04-11 05:35:00,37.4,36.4,29.75,South,175,1.0,6.0,96,0.00,,,0.01,Wunderground v.1.15,2013-04-11 10:35:00,
2013-04-11 05:45:00,37.3,36.3,29.74,SSW,199,1.0,6.0,96,0.00,,,0.01,Wunderground v.1.15,2013-04-11 10:45:00,
2013-04-11 05:54:00,37.0,36.0,29.71,SSW,205,1.0,2.0,96,0.00,,,0.01,Wunderground v.1.15,2013-04-11 10:54:00,
2013-04-11 06:04:00,37.0,36.0,29.74,SE,138,1.0,6.0,96,0.00,,,0.01,Wunderground v.1.15,2013-04-11 11:04:00,
2013-04-11 06:15:00,37.0,36.0,29.77,ESE,110,1.0,6.0,96,0.00,,,0.01,Wunderground v.1.15,2013-04-11 11:15:00,
2013-04-11 06:25:00,36.9,35.9,29.77,East,87,2.0,6.0,96,0.00,,,0.01,Wunderground v.1.15,2013-04-11 11:25:00,
2013-04-11 06:34:00,36.7,35.7,29.75,South,186,3.0,6.0,96,0.00,,,0.01,Wunderground v.1.15,2013-04-11 11:34:00,
2013-04-11 06:44:00,36.5,35.5,29.77,SE,134,2.0,6.0,96,0.00,,,0.01,Wunderground v.1.15,2013-04-11 11:44:00,
2013-04-11 06:55:00,36.5,35.5,29.76,SSW,207,2.0,6.0,96,0.00,,,0.01,Wunderground v.1.15,2013-04-11 11:55:00,
2013-04-11 07:04:00,36.4,35.4,29.75,SE,131,0.0,6.0,96,0.00,,,0.01,Wunderground v.1.15,2013-04-11 12:04:00,
2013-04-11 07:14:00,36.3,35.3,29.76,SW,226,2.0,2.0,96,0.00,,,0.01,Wunderground v.1.15,2013-04-11 12:14:00,
2013-04-11 07:24:00,36.2,34.9,29.77,SSW,203,2.0,6.0,95,0.00,,,0.01,Wunderground v.1.15,2013-04-11 12:24:00,
2013-04-11 07:35:00,36.2,34.9,29.77,SW,228,2.0,6.0,95,0.00,,,0.01,Wunderground v.1.15,2013-04-11 12:35:00,
2013-04-11 07:44:00,36.1,34.8,29.75,East,98,2.0,6.0,95,0.00,,,0.01,Wunderground v.1.15,2013-04-11 12:44:00,
2013-04-11 07:54:00,35.9,34.6,29.76,SE,132,2.0,6.0,95,0.00,,,0.01,Wunderground v.1.15,2013-04-11 12:54:00,
2013-04-11 08:05:00,35.7,34.4,29.75,SW,219,2.0,7.0,95,0.00,,,0.01,Wunderground v.1.15,2013-04-11 13:05:00,
2013-04-11 08:10:00,35.6,34.3,29.75,SSE,160,2.0,6.0,95,0.00,,,0.01,Wunderground v.1.15,2013-04-11 13:10:00,
2013-04-11 08:20:00,35.5,34.2,29.74,WSW,247,2.0,6.0,95,0.00,,,0.01,Wunderground v.1.15,2013-04-11 13:20:00,
2013-04-11 08:29:00,35.5,33.9,29.76,ESE,120,2.0,6.0,94,0.00,,,0.01,Wunderground v.1.15,2013-04-11 13:29:00,
2013-04-11 08:39:00,35.6,34.0,29.76,SW,229,2.0,2.0,94,0.00,,,0.01,Wunderground v.1.15,2013-04-11 13:39:00,
2013-04-11 08:45:00,35.8,34.2,29.75,SSW,207,2.0,6.0,94,0.00,,,0.01,Wunderground v.1.15,2013-04-11 13:45:00,
2013-04-11 08:55:00,35.9,34.1,29.76,WSW,238,2.0,6.0,93,0.00,,,0.01,Wunderground v.1.15,2013-04-11 13:55:00,
2013-04-11 09:04:00,36.0,33.9,29.76,ESE,112,2.0,6.0,92,0.00,,,0.01,Wunderground v.1.15,2013-04-11 14:04:00,
2013-04-11 09:14:00,36.1,34.0,29.76,SE,124,2.0,6.0,92,0.00,,,0.01,Wunderground v.1.15,2013-04-11 14:14:00,
2013-04-11 09:24:00,36.0,33.9,29.77,ESE,116,1.0,6.0,92,0.00,,,0.01,Wunderground v.1.15,2013-04-11 14:24:00,
2013-04-11 09:35:00,36.2,33.8,29.78,ESE,105,2.0,6.0,91,0.00,,,0.01,Wunderground v.1.15,2013-04-11 14:35:00,
2013-04-11 09:44:00,36.4,34.0,29.77,ESE,122,2.0,6.0,91,0.00,,,0.01,Wunderground v.1.15,2013-04-11 14:44:00,
2013-04-11 09:54:00,36.4,34.0,29.76,ESE,120,1.0,3.0,91,0.00,,,0.01,Wunderground v.1.15,2013-04-11 14:54:00,
2013-04-11 10:04:00,36.3,33.9,29.76,ESE,107,2.0,2.0,91,0.00,,,0.01,Wunderground v.1.15,2013-04-11 15:04:00,
2013-04-11 10:10:00,36.3,33.9,29.76,SSE,155,2.0,2.0,91,0.00,,,0.01,Wunderground v.1.15,2013-04-11 15:10:00,
2013-04-11 10:20:00,36.4,34.0,29.76,ESE,107,2.0,2.0,91,0.00,,,0.01,Wunderground v.1.15,2013-04-11 15:20:00,
2013-04-11 10:29:00,36.3,33.6,29.77,SSW,197,3.0,6.0,90,0.00,,,0.01,Wunderground v.1.15,2013-04-11 15:29:00,
2013-04-11 10:39:00,36.4,34.0,29.76,SSW,207,2.0,2.0,91,0.00,,,0.01,Wunderground v.1.15,2013-04-11 15:39:00,
2013-04-11 10:49:00,36.5,33.6,29.76,West,277,3.0,3.0,89,0.00,,,0.01,Wunderground v.1.15,2013-04-11 15:49:00,
2013-04-11 10:54:00,36.7,33.8,29.77,SSW,201,3.0,6.0,89,0.00,,,0.01,Wunderground v.1.15,2013-04-11 15:54:00,
2013-04-11 11:05:00,36.8,33.9,29.77,ESE,110,2.0,6.0,89,0.00,,,0.01,Wunderground v.1.15,2013-04-11 16:05:00,
2013-04-11 11:15:00,36.8,33.6,29.78,SSW,210,2.0,3.0,88,0.00,,,0.01,Wunderground v.1.15,2013-04-11 16:15:00,
2013-04-11 11:25:00,36.6,33.4,29.78,ESE,104,3.0,6.0,88,0.00,,,0.01,Wunderground v.1.15,2013-04-11 16:25:00,
2013-04-11 11:30:00,36.8,33.6,29.78,South,180,3.0,6.0,88,0.00,,,0.01,Wunderground v.1.15,2013-04-11 16:30:00,
2013-04-11 11:35:00,36.8,33.6,29.78,SW,214,2.0,6.0,88,0.00,,,0.01,Wunderground v.1.15,2013-04-11 16:35:00,
2013-04-11 11:44:00,37.0,33.8,29.79,ESE,106,1.0,6.0,88,0.00,,,0.01,Wunderground v.1.15,2013-04-11 16:44:00,
2013-04-11 11:54:00,37.3,34.1,29.78,SSE,158,1.0,6.0,88,0.00,,,0.01,Wunderground v.1.15,2013-04-11 16:54:00,
2013-04-11 11:59:00,37.2,33.7,29.78,ESE,110,1.0,1.0,87,0.00,,,0.01,Wunderground v.1.15,2013-04-11 16:59:00,
2013-04-11 12:04:00,37.5,34.0,29.78,SSE,155,1.0,6.0,87,0.00,,,0.01,Wunderground v.1.15,2013-04-11 17:04:00,
2013-04-11 12:09:00,37.7,34.2,29.78,SSW,195,2.0,6.0,87,0.00,,,0.01,Wunderground v.1.15,2013-04-11 17:09:00,
2013-04-11 12:20:00,37.8,33.7,29.78,SW,225,3.0,3.0,85,0.00,,,0.01,Wunderground v.1.15,2013-04-11 17:20:00,
2013-04-11 12:25:00,37.7,33.6,29.78,East,94,3.0,6.0,85,0.00,,,0.01,Wunderground v.1.15,2013-04-11 17:25:00,
2013-04-11 12:35:00,37.5,33.1,29.77,SSE,166,3.0,6.0,84,0.00,,,0.01,Wunderground v.1.15,2013-04-11 17:35:00,
2013-04-11 12:40:00,37.4,33.3,29.77,ESE,120,3.0,3.0,85,0.00,,,0.01,Wunderground v.1.15,2013-04-11 17:40:00,
2013-04-11 12:49:00,37.3,33.5,29.78,East,91,2.0,6.0,86,0.00,,,0.01,Wunderground v.1.15,2013-04-11 17:49:00,
2013-04-11 12:59:00,37.3,33.5,29.78,SE,134,1.0,6.0,86,0.00,,,0.01,Wunderground v.1.15,2013-04-11 17:59:00,
2013-04-11 13:09:00,37.3,33.5,29.77,SW,226,3.0,3.0,86,0.00,,,0.01,Wunderground v.1.15,2013-04-11 18:09:00,
2013-04-11 13:15:00,37.6,33.8,29.77,South,190,2.0,4.0,86,0.00,,,0.01,Wunderground v.1.15,2013-04-11 18:15:00,
2013-04-11 13:24:00,37.8,34.0,29.77,ESE,117,2.0,6.0,86,0.00,,,0.01,Wunderground v.1.15,2013-04-11 18:24:00,
2013-04-11 13:34:00,38.5,34.1,29.76,WSW,245,2.0,3.0,84,0.00,,,0.01,Wunderground v.1.15,2013-04-11 18:34:00,
2013-04-11 13:39:00,38.4,33.7,29.76,SW,222,2.0,6.0,83,0.00,,,0.01,Wunderground v.1.15,2013-04-11 18:39:00,
2013-04-11 13:49:00,38.4,33.7,29.76,ESE,103,3.0,6.0,83,0.00,,,0.01,Wunderground v.1.15,2013-04-11 18:49:00,
2013-04-11 13:55:00,38.6,33.9,29.76,ESE,111,3.0,6.0,83,0.00,,,0.01,Wunderground v.1.15,2013-04-11 18:55:00,
2013-04-11 14:05:00,39.7,34.3,29.76,SSW,203,2.0,6.0,81,0.00,,,0.01,Wunderground v.1.15,2013-04-11 19:05:00,
2013-04-11 14:14:00,39.9,33.9,29.76,South,183,3.0,6.0,79,0.00,,,0.01,Wunderground v.1.15,2013-04-11 19:14:00,
2013-04-11 14:24:00,40.1,34.1,29.76,SW,214,3.0,6.0,79,0.00,,,0.01,Wunderground v.1.15,2013-04-11 19:24:00,
2013-04-11 14:34:00,41.0,35.0,29.76,SSE,148,2.0,6.0,79,0.00,,,0.01,Wunderground v.1.15,2013-04-11 19:34:00,
2013-04-11 14:39:00,41.1,34.1,29.76,NW,312,2.0,6.0,76,0.00,,,0.01,Wunderground v.1.15,2013-04-11 19:39:00,
2013-04-11 14:50:00,41.5,34.5,29.75,ESE,121,3.0,6.0,76,0.00,,,0.01,Wunderground v.1.15,2013-04-11 19:50:00,
2013-04-11 15:00:00,42.3,35.3,29.75,ESE,107,3.0,6.0,76,0.00,,,0.01,Wunderground v.1.15,2013-04-11 20:00:00,
2013-04-11 15:09:00,42.3,34.3,29.75,South,174,4.0,4.0,73,0.00,,,0.01,Wunderground v.1.15,2013-04-11 20:09:00,
2013-04-11 15:19:00,42.5,34.8,29.74,SSW,196,3.0,3.0,74,0.00,,,0.01,Wunderground v.1.15,2013-04-11 20:19:00,
2013-04-11 15:30:00,43.1,35.4,29.74,SW,221,2.0,2.0,74,0.00,,,0.01,Wunderground v.1.15,2013-04-11 20:30:00,
2013-04-11 15:40:00,43.3,34.9,29.73,South,191,3.0,3.0,72,0.00,,,0.01,Wunderground v.1.15,2013-04-11 20:40:00,
2013-04-11 15:49:00,44.1,34.9,29.73,South,173,4.0,4.0,70,0.00,,,0.01,Wunderground v.1.15,2013-04-11 20:49:00,
2013-04-11 15:59:00,44.8,35.2,29.73,SSW,194,2.0,2.0,69,0.00,,,0.01,Wunderground v.1.15,2013-04-11 20:59:00,
2013-04-11 16:10:00,44.3,33.7,29.72,SE,146,3.0,3.0,66,0.00,,,0.01,Wunderground v.1.15,2013-04-11 21:10:00,
2013-04-11 16:20:00,44.4,34.1,29.73,WSW,256,3.0,3.0,67,0.00,,,0.01,Wunderground v.1.15,2013-04-11 21:20:00,
2013-04-11 16:29:00,44.7,33.3,29.74,East,88,3.0,6.0,64,0.00,,,0.01,Wunderground v.1.15,2013-04-11 21:29:00,
2013-04-11 16:39:00,44.2,32.8,29.73,SE,135,3.0,3.0,64,0.00,,,0.01,Wunderground v.1.15,2013-04-11 21:39:00,
2013-04-11 16:50:00,44.1,32.7,29.73,WSW,257,4.0,6.0,64,0.00,,,0.01,Wunderground v.1.15,2013-04-11 21:50:00,
2013-04-11 17:00:00,44.1,32.3,29.73,South,169,3.0,3.0,63,0.00,,,0.01,Wunderground v.1.15,2013-04-11 22:00:00,
2013-04-11 17:10:00,44.0,32.6,29.74,SW,214,2.0,6.0,64,0.00,,,0.01,Wunderground v.1.15,2013-04-11 22:10:00,
2013-04-11 17:19:00,43.7,32.3,29.74,SSE,167,2.0,2.0,64,0.00,,,0.01,Wunderground v.1.15,2013-04-11 22:19:00,
2013-04-11 17:29:00,43.6,31.8,29.74,South,172,3.0,6.0,63,0.00,,,0.01,Wunderground v.1.15,2013-04-11 22:29:00,
2013-04-11 17:34:00,43.9,32.5,29.74,West,264,4.0,6.0,64,0.00,,,0.01,Wunderground v.1.15,2013-04-11 22:34:00,
2013-04-11 17:44:00,43.9,31.7,29.74,ESE,110,3.0,6.0,62,0.00,,,0.01,Wunderground v.1.15,2013-04-11 22:44:00,
2013-04-11 17:50:00,43.9,32.1,29.74,SSE,162,3.0,6.0,63,0.00,,,0.01,Wunderground v.1.15,2013-04-11 22:50:00,
2013-04-11 17:59:00,44.1,32.3,29.74,SSW,197,3.0,7.0,63,0.00,,,0.01,Wunderground v.1.15,2013-04-11 22:59:00,
2013-04-11 18:09:00,43.8,32.4,29.74,SSW,197,2.0,6.0,64,0.00,,,0.01,Wunderground v.1.15,2013-04-11 23:09:00,
2013-04-11 18:19:00,43.8,32.8,29.74,South,172,3.0,3.0,65,0.00,,,0.01,Wunderground v.1.15,2013-04-11 23:19:00,
2013-04-11 18:25:00,43.9,32.5,29.75,ESE,120,2.0,6.0,64,0.00,,,0.01,Wunderground v.1.15,2013-04-11 23:25:00,
2013-04-11 18:35:00,43.8,32.0,29.75,WSW,243,2.0,6.0,63,0.00,,,0.01,Wunderground v.1.15,2013-04-11 23:35:00,
2013-04-11 18:45:00,43.6,32.2,29.75,SE,135,3.0,6.0,64,0.00,,,0.01,Wunderground v.1.15,2013-04-11 23:45:00,
2013-04-11 18:54:00,43.4,32.0,29.75,SW,222,3.0,5.0,64,0.00,,,0.01,Wunderground v.1.15,2013-04-11 23:54:00,
2013-04-11 18:59:00,43.3,31.9,29.75,SSE,150,3.0,3.0,64,0.00,,,0.01,Wunderground v.1.15,2013-04-11 23:59:00,
2013-04-11 19:09:00,43.0,32.0,29.75,SW,233,2.0,6.0,65,0.00,,,0.01,Wunderground v.1.15,2013-04-12 00:09:00,
2013-04-11 19:15:00,42.9,31.9,29.75,East,93,2.0,6.0,65,0.00,,,0.01,Wunderground v.1.15,2013-04-12 00:15:00,
2013-04-11 19:20:00,42.7,31.7,29.75,SSW,206,2.0,2.0,65,0.00,,,0.01,Wunderground v.1.15,2013-04-12 00:20:00,
2013-04-11 19:29:00,42.4,31.5,29.75,South,187,2.0,6.0,65,0.00,,,0.01,Wunderground v.1.15,2013-04-12 00:29:00,
2013-04-11 19:39:00,42.2,31.6,29.75,South,180,2.0,2.0,66,0.00,,,0.01,Wunderground v.1.15,2013-04-12 00:39:00,
2013-04-11 19:49:00,41.7,31.5,29.75,SSE,162,1.0,1.0,67,0.00,,,0.01,Wunderground v.1.15,2013-04-12 00:49:00,
2013-04-11 19:55:00,41.4,31.6,29.75,East,99,1.0,6.0,68,0.00,,,0.01,Wunderground v.1.15,2013-04-12 00:55:00,
2013-04-11 20:00:00,41.1,31.3,29.75,South,170,0.0,6.0,68,0.00,,,0.01,Wunderground v.1.15,2013-04-12 01:00:00,
2013-04-11 20:10:00,40.7,31.7,29.75,ESE,106,0.0,6.0,70,0.00,,,0.01,Wunderground v.1.15,2013-04-12 01:10:00,
2013-04-11 20:19:00,40.3,31.3,29.76,SSE,150,0.0,6.0,70,0.00,,,0.01,Wunderground v.1.15,2013-04-12 01:19:00,
2013-04-11 20:29:00,40.1,31.4,29.76,ESE,117,0.0,6.0,71,0.00,,,0.01,Wunderground v.1.15,2013-04-12 01:29:00,
2013-04-11 20:40:00,39.7,31.4,29.76,SSW,203,0.0,6.0,72,0.00,,,0.01,Wunderground v.1.15,2013-04-12 01:40:00,
2013-04-11 20:50:00,39.5,31.6,29.77,SSW,200,0.0,6.0,73,0.00,,,0.01,Wunderground v.1.15,2013-04-12 01:50:00,
2013-04-11 20:59:00,39.4,31.8,29.77,East,82,0.0,6.0,74,0.00,,,0.01,Wunderground v.1.15,2013-04-12 01:59:00,
2013-04-11 21:09:00,39.3,31.7,29.77,ESE,122,0.0,6.0,74,0.00,,,0.01,Wunderground v.1.15,2013-04-12 02:09:00,
2013-04-11 21:19:00,39.3,31.7,29.77,ESE,120,0.0,6.0,74,0.00,,,0.01,Wunderground v.1.15,2013-04-12 02:19:00,
2013-04-11 21:25:00,39.1,31.8,29.77,SSE,160,0.0,6.0,75,0.00,,,0.01,Wunderground v.1.15,2013-04-12 02:25:00,
2013-04-11 21:34:00,38.9,32.0,29.78,South,170,0.0,6.0,76,0.00,,,0.01,Wunderground v.1.15,2013-04-12 02:34:00,
2013-04-11 21:44:00,38.7,31.8,29.78,SSE,152,0.0,6.0,76,0.00,,,0.01,Wunderground v.1.15,2013-04-12 02:44:00,
2013-04-11 21:54:00,38.4,31.5,29.78,ESE,113,0.0,6.0,76,0.00,,,0.01,Wunderground v.1.15,2013-04-12 02:54:00,
2013-04-11 22:00:00,38.1,31.5,29.78,SSW,207,0.0,6.0,77,0.00,,,0.01,Wunderground v.1.15,2013-04-12 03:00:00,
2013-04-11 22:10:00,38.0,31.4,29.78,SE,131,0.0,6.0,77,0.00,,,0.01,Wunderground v.1.15,2013-04-12 03:10:00,
2013-04-11 22:19:00,37.9,31.3,29.78,East,97,0.0,6.0,77,0.00,,,0.01,Wunderground v.1.15,2013-04-12 03:19:00,
2013-04-11 22:29:00,37.8,31.2,29.78,ESE,104,0.0,6.0,77,0.00,,,0.01,Wunderground v.1.15,2013-04-12 03:29:00,
2013-04-11 22:35:00,37.7,31.5,29.78,ESE,122,0.0,6.0,78,0.00,,,0.01,Wunderground v.1.15,2013-04-12 03:35:00,
2013-04-11 22:45:00,37.6,31.4,29.78,ESE,112,0.0,6.0,78,0.00,,,0.01,Wunderground v.1.15,2013-04-12 03:45:00,
2013-04-11 22:54:00,37.3,31.4,29.78,SE,139,0.0,6.0,79,0.00,,,0.01,Wunderground v.1.15,2013-04-12 03:54:00,
2013-04-11 23:04:00,37.5,31.6,29.78,ESE,107,0.0,6.0,79,0.00,,,0.01,Wunderground v.1.15,2013-04-12 04:04:00,
2013-04-11 23:09:00,37.3,31.4,29.78,ESE,107,0.0,6.0,79,0.00,,,0.01,Wunderground v.1.15,2013-04-12 04:09:00,
2013-04-11 23:15:00,37.1,31.2,29.78,East,98,0.0,6.0,79,0.00,,,0.01,Wunderground v.1.15,2013-04-12 04:15:00,
2013-04-11 23:20:00,37.3,31.4,29.78,SW,214,0.0,6.0,79,0.00,,,0.01,Wunderground v.1.15,2013-04-12 04:20:00,
2013-04-11 23:25:00,37.4,31.5,29.78,SE,127,0.0,6.0,79,0.00,,,0.01,Wunderground v.1.15,2013-04-12 04:25:00,
2013-04-11 23:34:00,37.5,31.6,29.78,ESE,113,0.0,6.0,79,0.00,,,0.01,Wunderground v.1.15,2013-04-12 04:34:00,
2013-04-11 23:39:00,37.5,31.6,29.78,ESE,117,0.0,6.0,79,0.00,,,0.01,Wunderground v.1.15,2013-04-12 04:39:00,
2013-04-11 23:49:00,37.4,31.5,29.78,SSW,210,0.0,6.0,79,0.00,,,0.01,Wunderground v.1.15,2013-04-12 04:49:00,